Location: Unspecified
(42.3650°N, 71.1030°W)
Time: 07:42:35
(UTC+00:00)

Vanguard 2 - Pass Details

Date: 04 July 2024
Orbit: 552 x 2913 km, 32.9° (Epoch: 13 July)

Event Time Altitude Azimuth Distance (km) Brightness Sun altitude
Exits shadow 08:22:18 - 245° (WSW) 3,869 10.5 -8.4°
Reaches altitude 10° 08:22:51 10° 244° (WSW) 3,727 10.4 -8.3°
Maximum altitude 08:32:49 55° 170° (S) 2,481 9.9 -6.9°
Drops below altitude 10° 08:48:07 10° 100° (E) 5,546 12.6 -4.7°
Sets 08:52:57 0° 97° (E) 6,699 13.1 -4.0°
